Hourly Data Report for October 05, 2017

All times are specified in Local Standard Time (LST). Add 1 hour to adjust for Daylight Saving Time where and when it is observed.

TORONTO INTL A
ONTARIO

43°40'36.000" N
79°37'50.000" W
173.40 m
6158731
71624
YYZ

Download Data

Hourly Data (October 2017)
Hourly Data Report for October 5, 2017
Temp Definition
°C
Dew Point Temp Definition
°C
Rel Hum Definition
%
Wind Dir Definition
10's deg

Wind Spd Definition
km/h
Visibility Definition
km
Stn Press Definition
kPa
Hmdx Definition


Wind Chill Definition


Weather Definition


TIME
00:00 Legend Double Dagger 12.8 8.8 77 28 10 24.1 100.05     LegendNANA
01:00 Legend Double Dagger 11.9 9.3 84 24 10 24.1 100.10     Clear
02:00 Legend Double Dagger 11.2 9.2 87 25 9 24.1 100.07     LegendNANA
03:00 Legend Double Dagger 10.8 8.9 88 28 7 24.1 100.05     LegendNANA
04:00 Legend Double Dagger 10.8 8.9 88 26 7 24.1 100.06     Clear
05:00 Legend Double Dagger 8.9 7.7 92 26 9 24.1 100.04     LegendNANA
06:00 Legend Double Dagger 10.4 9.3 93 29 13 24.1 100.05     LegendNANA
07:00 Legend Double Dagger 10.3 9.1 92 26 7 24.1 100.06     Clear
08:00 Legend Double Dagger 13.3 11.2 87 26 16 24.1 100.06     LegendNANA
09:00 Legend Double Dagger 16.0 11.9 76 24 18 24.1 100.03     LegendNANA
10:00 Legend Double Dagger 17.6 10.7 63 24 27 24.1 99.97     Mostly Cloudy
11:00 Legend Double Dagger 19.5 9.6 53 26 30 24.1 99.91     LegendNANA
12:00 Legend Double Dagger 20.6 9.6 49 26 23 24.1 99.83     LegendNANA
13:00 Legend Double Dagger 21.6 7.6 40 25 24 24.1 99.75     Clear
14:00 Legend Double Dagger 22.7 7.1 36 27 25 24.1 99.69     LegendNANA
15:00 Legend Double Dagger 22.4 5.8 33 26 33 24.1 99.67     LegendNANA
16:00 Legend Double Dagger 22.4 3.6 29 27 28 24.1 99.63     Mostly Cloudy
17:00 Legend Double Dagger 21.7 3.3 30 26 22 24.1 99.60     LegendNANA
18:00 Legend Double Dagger 20.2 5.3 37 29 23 24.1 99.67     LegendNANA
19:00 Legend Double Dagger 19.3 6.5 43 29 13 24.1 99.69     Mostly Cloudy
20:00 Legend Double Dagger 18.9 6.9 45 28 14 24.1 99.75     LegendNANA
21:00 Legend Double Dagger 18.0 7.0 48 35 14 24.1 99.75     LegendNANA
22:00 Legend Double Dagger 17.0 7.6 54 36 1 24.1 99.74     Mostly Cloudy
23:00 Legend Double Dagger 16.9 7.8 55 22 3 24.1 99.74     LegendNANA

Notes on Data Quality.

Legend

  • E = Estimated
  • M = Missing
  • NA = Not Available
  • ‡ = Partner data that is not subject to review by the National Climate Archives
Date modified: